Hourly Data Report for July 12, 2021

CAMPBELL RIVER A
BRITISH COLUMBIA
Current Station Operator: NAVCAN

49°57'07.000" N
125°16'23.000" W
108.80 m
1021270
YBL

Download Data

Hourly Data (July 2021)
Hourly Data Report for July 12, 2021
TIME
LST
Temp Definition
°C
Dew Point Definition
°C
Rel Hum Definition
%
Precip. Amount Definition
mm

Wind Dir Definition
10's deg

Wind Spd Definition
km/h
Visibility Definition
km
Stn Press Definition
kPa
Hmdx Definition


Wind Chill Definition


Weather Definition


00:00 16.4 9.7 64 LegendMM 30 16 LegendMM 100.54     LegendNANA
01:00 15.1 9.6 69 LegendMM 29 15 LegendMM 100.54     LegendNANA
02:00 14.4 10.2 76 LegendMM 31 19 LegendMM 100.53     LegendNANA
03:00 13.8 10.2 78 LegendMM 30 10 LegendMM 100.56     LegendNANA
04:00 13.2 9.8 80 LegendMM 29 13 LegendMM 100.55     LegendNANA
05:00 13.4 10.2 81 LegendMM 30 18 LegendMM 100.57     LegendNANA
06:00 14.7 10.4 76 LegendMM 31 18 LegendMM 100.61     LegendNANA
07:00 16.5 10.6 68 LegendMM 31 19 LegendMM 100.62     LegendNANA
08:00 18.3 10.9 62 LegendMM 30 12 LegendMM 100.62     LegendNANA
09:00 21.4 11.5 53 LegendMM 31 12 LegendMM 100.61     LegendNANA
10:00 22.2 12.0 52 LegendMM 31 8 LegendMM 100.61     LegendNANA
11:00 23.6 13.0 51 LegendMM 4 5 LegendMM 100.58 26   LegendNANA
12:00 25.2 12.9 46 LegendMM 3 9 LegendMM 100.55 28   LegendNANA
13:00 27.9 13.1 39 LegendMM 29 12 LegendMM 100.49 31   LegendNANA
14:00 28.0 13.4 40 LegendMM 2 10 LegendMM 100.45 31   LegendNANA
15:00 29.0 13.1 37 LegendMM 35 12 LegendMM 100.42 32   LegendNANA
16:00 29.6 12.7 35 LegendMM 2 14 LegendMM 100.38 32   LegendNANA
17:00 29.0 13.1 37 LegendMM 36 12 LegendMM 100.34 32   LegendNANA
18:00 27.9 10.3 33 LegendMM 30 14 LegendMM 100.33 29   LegendNANA
19:00 25.8 10.3 37 LegendMM 30 16 LegendMM 100.34 27   LegendNANA
20:00 22.2 10.6 47 LegendMM 28 5 LegendMM 100.36     LegendNANA
21:00 18.7 10.3 58 LegendMM 30 11 LegendMM 100.39     LegendNANA
22:00 18.2 8.9 54 LegendMM 29 12 LegendMM 100.41     LegendNANA
23:00 17.2 9.6 60 LegendMM 31 19 LegendMM 100.41     LegendNANA

Notes on Data Quality.

Legend

  • E = Estimated
  • M = Missing
  • NA = Not Available*
  • [empty] = Indicates an unobserved value
Date modified: